Location: Couloutre
(47.4081°N, 3.2259°E)
Time: 14:59:42
(UTC+00:00)

USA 234 - Pass Details

Date: 27 February 2020
Orbit: 1101 x 1107 km, 123.0° (Epoch: 26 March)

Event Time Altitude Azimuth Distance (km) Brightness Sun altitude
Exits shadow 20:42:40 53° 14° (NNE) 1,338 3.6 -32.9°
Drops below altitude 10° 20:48:45 10° 307° (NW) 2,966 6.3 -33.8°
Sets 20:51:18 0° 303° (WNW) 3,926 7.2 -34.2°
